Volver al catálogo

OPS 7323

DMSP 5B F3

ActivoMeteoSSO
NORAD 6275·PAYLOAD·🇺🇸 United States

Lanzado Nov 9, 1972 desde Vandenberg Space Force Base

Loading…

Próximos Pases (próximas 24 horas)

TLE

ActualizadoSource: Space-Track

Época: Sep 14, 2026, 10:47 UTC

1 06275U 72089A   26257.44932066  .00000179  00000-0  85528-4 0  9991
2 06275  98.5421  62.4113 0035647  59.2902 301.1785 14.30003293797430

Sigue OPS 7323 en tiempo real con AllMySat

Download on the App Store